Overview Statistics Trail Chart Weather Telemetry Raw packets
 

This is the latest recevied weather packets stored in our database for station/object WA6OOO. If no packets are shown the sender has not sent any weather packets the latest 10 day(s).

<< 65 66 67 68 69 70 71 >>
Time Temp. Humidity Pressure Rain* Wind** Luminosity Snow
1788217257 24.44° C 66% 1016.2 hPa 0 mm - 434 W/m² -
1788216960 24.44° C 67% 1016.3 hPa 0 mm - 447 W/m² -
1788216647 24.44° C 67% 1016.4 hPa 0 mm - 459 W/m² -
1788216343 24.44° C 66% 1016.3 hPa 0 mm - 478 W/m² -
1788216038 25° C 65% 1016.3 hPa 0 mm - 492 W/m² -
1788215733 25° C 66% 1016.3 hPa 0 mm - 507 W/m² -
1788215430 24.44° C 68% 1016.4 hPa 0 mm - 519 W/m² -
1788215126 24.44° C 66% 1016.4 hPa 0 mm - 533 W/m² -
1788214825 24.44° C 67% 1016.6 hPa 0 mm - 544 W/m² -
1788214521 25° C 66% 1016.4 hPa 0 mm - 558 W/m² -
1788214216 24.44° C 67% 1016.7 hPa 0 mm - 562 W/m² -
1788213911 24.44° C 67% 1016.9 hPa 0 mm - 576 W/m² -
1788213606 24.44° C 68% 1016.7 hPa 0 mm - 585 W/m² -
1788213302 24.44° C 67% 1016.7 hPa 0 mm - 593 W/m² -
1788212998 24.44° C 68% 1016.8 hPa 0 mm - 603 W/m² -
1788212695 23.89° C 68% 1016.8 hPa 0 mm - 612 W/m² -
1788212390 23.89° C 68% 1016.8 hPa 0 mm - 621 W/m² -
1788212087 23.89° C 69% 1016.9 hPa 0 mm - 631 W/m² -
1788211787 23.89° C 69% 1016.9 hPa 0 mm - 641 W/m² -
1788211483 23.89° C 69% 1017 hPa 0 mm - 648 W/m² -
1788211183 23.89° C 68% 1017 hPa 0 mm - 654 W/m² -
1788210878 23.89° C 70% 1017.1 hPa 0 mm - 662 W/m² -
1788210577 23.89° C 70% 1017.1 hPa 0 mm - 669 W/m² -
1788210273 23.89° C 70% 1017 hPa 0 mm - 677 W/m² -
1788209969 23.89° C 70% 1017.2 hPa 0 mm - 683 W/m² -

* Rain latest hour (hover to see other rain measurements)
** Current wind speed in m/s (hover to see current wind gust speed)